www.pogodaiklimat.ru

Погода и климат >> Архив погоды >> Россия >> Чукотка >> Валькаркай


ПОГОДА в Валькаркае

  • Прогноз погоды в Валькаркае
  • Монитор погоды в Валькаркае

АРХИВ ПОГОДЫ в Валькаркае

Время (UTC), дата Ветер
(напр.,м/с)
 
Видим.   Явления Облачность Т
(С)
Тd
(С)
f
(%)
Тe
(С)
Тes
(С)
Комфортность P
(гПа)
Po
(гПа)
Тmin
(С)
Tmax
(С)
R
(мм)
R24
(мм)
S
(см)
09 12.07 СВ 2
{4}
20 км 6/0
[Ci fib]
+6.7 +4.1 83 +4 +5 1005.2 1004.8 +14.6
12 12.07 В 1
{6}
20 км 6/0
[Ci fib]
+8.7 +5.8 82 +8 +8 1005.5 1005.0
15 12.07 СЗ 1
{2}
20 км 4/1 200 м
[St Ci fib]
+6.0 +5.1 94 +5 +5 1005.3 1004.8
18 12.07 ЮЗ 1
{3}
20 км 6/0
[Ac trans Ci fib]
+11.1 +9.0 87 +11 +13 1005.6 1005.1
21 12.07 СЗ 2
{7}
20 км 8/0
[Ci fib]
+7.8 +5.8 87 +6 +11 1006.2 1005.7 +5.6
00 13.07 СЗ 3
{5}
50 км 8/0
[Cc]
+10.5 +8.0 84 +8 +15 1006.2 1005.7
03 13.07 СЗ 2
{5}
50 км 8/0
[Cc]
+10.0 +7.3 83 +8 +15 1006.3 1005.8
06 13.07 З 1
{3}
50 км 8/0
[Ac trans Cc]
+10.8 +6.5 75 +11 +14 1004.9 1004.4
09 13.07 З 2
{5}
600 м туман ?/? +8.2 +8.2 100 +6 +6 1005.8 1005.3 +12.1
12 13.07 З 3
{6}
800 м туман 6/0
[Ac trans Ci]
+7.5 +7.3 99 +4 +4 1005.4 1004.9
15 13.07 СЗ 3
{7}
20 км {туман} 6/1 200 м
[St Ac trans Ci fib]
+8.5 +7.8 95 +6 +6 1005.5 1005.0
18 13.07 СЗ 4
{6}
20 км {туман} 10/4 200 м
[St Ac As]
+9.0 +8.4 96 +6 +6 1006.0 1005.5
21 13.07 СЗ 5
{8}
20 км 10/5 200 м
[St Ac As]
+6.9 +6.0 94 +3 +3 1007.7 1007.2 +6.9
00 14.07 СЗ 3
{7}
900 м туман ?/? +5.1 +5.1 100 +1 +1 1008.5 1008.0 +5.0
03 14.07 СЗ 2
{5}
20 км {туман} 9/9 120 м
[St]
+5.3 +4.4 94 +3 +3 1008.7 1008.3
06 14.07 С 2
{4}
900 м туман ?/? +4.6 +4.6 100 +2 +2 1008.6 1008.1
09 14.07 В 2
{4}
20 км в посл. час туман 9/8 120 м
[St Ac trans]
+3.8 +3.3 97 +1 +1 1007.9 1007.4 +6.9
12 14.07 В 4
{5}
20 км {туман} 10/8 120 м
[St Ac trans]
+4.6 +3.9 95 0 0 1006.9 1006.4
15 14.07 В 2
{6}
20 км слаб. дождь 10/8 180 м
[St Ac und]
+5.1 +4.3 95 +2 +2 1005.9 1005.4
18 14.07 В 5
{6}
20 км {дождь} 10/10 200 м
[St]
+5.6 +5.1 97 +1 +1 1003.8 1003.3
21 14.07 В 4
{7}
10 км дождь 10/10 150 м
[Frnb Ns]
+5.9 +5.7 99 +2 +2 1003.5 1003.0 +3.7 14
00 15.07 В 5
{9}
10 км слаб. дождь 10/10 150 м
[Frnb Ns]
+6.0 +5.8 99 +1 +1 1003.8 1003.4
03 15.07 В 7
{9}
20 км слаб. дождь 10/10 210 м
[St]
+5.4 +5.2 99 -0 -0 1004.1 1003.6
06 15.07 СВ 7
{10}
20 км {дождь} 10/10 210 м
[St]
+4.7 +4.0 95 -1 -1 1005.1 1004.6
09 15.07 СВ 7
{9}
20 км 9/9 240 м
[St]
+4.2 +3.2 93 -2 -2 1005.7 1005.2 +6.1
12 15.07 СВ 6
{8}
20 км 10/10 240 м
[St]
+4.2 +3.7 97 -1 -1 1005.7 1005.2
15 15.07 СВ 6
{7}
20 км 10/10 240 м
[St]
+4.0 +3.5 97 -2 -2 1005.2 1004.7
18 15.07 В 5
{7}
20 км 9/5 200 м
[St Ac trans]
+5.1 +4.4 95 0 +1 1004.6 1004.1
21 15.07 С 4
{7}
900 м туман ?/? +3.7 +3.7 100 -1 -1 1004.9 1004.4 +3.7
00 16.07 СВ 3
{6}
20 км {туман} 9/8 100 м
[St Ac trans]
+6.1 +4.7 91 +3 +4 1004.0 1003.5
03 16.07 СЗ 7
{9}
20 км 8/6 300 м
[St Ac trans]
+7.4 +4.6 82 +3 +3 1003.8 1003.3
06 16.07 З 6
{11}
20 км 10/5 1000 м
[Sc Ac As]
+10.0 +4.0 66 +7 +7 1002.9 1002.4
09 16.07 ЮЗ 7
{11}
20 км слаб. дождь 9/6 600 м
[Sc Ac As]
+9.4 +5.9 79 +5 +5 1002.1 1001.6 +10.4 0.0
12 16.07 З 7
{14}
10 км слаб. дождь 10/8 600 м
[Sc As op]
+6.2 +5.5 95 +1 +1 1002.4 1001.9
15 16.07 СЗ 8
{9}
10 км слаб. дождь 10/10 330 м
[St]
+4.4 +3.9 97 -2 -2 1002.0 1001.5
18 16.07 З 8-11
{11}
20 км {дождь} 8/6 200 м
[St Ac trans]
+4.9 +3.0 87 -1 -1 1003.2 1002.7
21 16.07 З 9-13
{13}
20 км 9/8 600 м
[Sc Ac trans]
+5.0 +1.7 79 -1 -1 1003.9 1003.4 +4.3 1
00 17.07 З 9-12
{14}
20 км 8/8 600 м
[Sc Ac trans]
+5.0 +0.9 75 -1 -1 1006.0 1004.5
03 17.07 З 8-11
{13}
20 км 8/8 800 м
[Sc]
+5.3 +1.0 74 -0 0 1005.3 1004.8
06 17.07 З 7
{12}
20 км 6/4 600 м
[Sc Ac trans Ci fib]
+5.6 +0.7 71 +1 +1 1005.7 1005.2
09 17.07 З 6
{10}
20 км 9/3 600 м
[Sc Ac As]
+5.6 +0.7 71 +1 +1 1005.7 1005.2 +5.9
12 17.07 ЮЗ 5
{9}
20 км 9/8 600 м
[Sc Ac As]
+5.5 +2.6 82 +1 +1 1005.5 1005.0
15 17.07 З 4
{8}
20 км 9/8 500 м
[Sc Ac As]
+5.2 +3.0 86 +1 +1 1005.4 1004.9
18 17.07 СЗ 4 20 км в посл. час дождь 10/10 300 м
[St As trans Cs]
+4.7 +3.0 89 0 0 1005.6 1005.1
21 17.07 СЗ 3
{6}
20 км {дождь} 8/6 600 м
[Sc Ac trans]
+4.0 +2.8 92 0 +2 1005.8 1005.3 +3.7 0.8
00 18.07 СЗ 5
{7}
20 км {дождь} 9/6 600 м
[Sc Ac trans]
+4.6 +1.8 82 -0 +1 1006.3 1005.8
03 18.07 СЗ 4
{7}
20 км 9/8 600 м
[Sc Ac trans]
+4.2 +1.7 84 -0 +1 1007.3 1006.8
06 18.07 СЗ 6
{8}
20 км 10/10 300 м
[St]
+2.4 +0.8 89 -4 -4 1008.1 1007.6
09 18.07 З 5
{9}
20 км 10/10 330 м
[St]
+0.7 -0.7 90 -5 -5 1009.5 1009.0 +4.7
12 18.07 З 5
{8}
20 км 10/10 300 м
[St]
+0.5 -0.3 94 -6 -6 1010.9 1010.4
15 18.07 З 6
{9}
20 км 10/10 240 м
[St]
+0.4 -0.5 94 -6 -6 1011.9 1011.4
18 18.07 З 6
{8}
20 км 10/10 240 м
[St]
+0.2 -0.7 94 -7 -7 1012.7 1012.2
21 18.07 З 7-10
{11}
20 км 4/3 200 м
[St Ci fib]
+2.3 -0.5 82 -4 -3 1013.5 1013.0 +0.1
00 19.07 З 8-11
{12}
20 км 5/5 300 м
[St]
+4.2 +0.3 76 -2 -1 1013.9 1013.4
03 19.07 З 7-10
{12}
20 км 6/5 200 м
[St Ac trans Ci fib]
+5.4 +1.6 76 0 +1 1014.0 1013.5
06 19.07 З 8-10
{11}
20 км 8/5 300 м
[St Ac trans Ci fib]
+5.2 +2.0 80 -1 -0 1013.4 1012.9

 

Местоположение метеостанции Валькаркай (Чукотка, Россия): широта 70.08 долгота 170.90 высота над уровнем моря 6 м.

В архиве по умолчанию представлена погода в Валькаркае за последнюю неделю. Архивные данные за месяц целиком и за предыдущие месяцы, начиная с января 2011 года, Вы можете получить, выбрав интересующий диапазон дат из раскрывающегося списка и нажав кнопку "Ввод!".


*Определитесь, кто Вы:
робот инопланетянин человек

Внимание! Время в таблицах - всемирное. Для получения местного времени необходимо прибавить поправку, которая равна 12 ч.

Смотрите также архив погоды в соседних городах и на ближайших метеорологических станциях:

Погода в Певеке (Чукотка, Россия) (50 км)
Погода на 21 км (Чукотка, Россия) (50 км)
Погода на Айон Острове (Чукотка, Россия) (115 км)
Погода в Комсомольской (Чукотка, Россия) (129 км)
Погода в Чауне (Чукотка, Россия) (134 км)
Погода в Паляваам-Глубокой (Чукотка, Россия) (163 км)
Погода в Раучуе (Чукотка, Россия) (181 км)
Погода на Мысе Биллингс (Чукотка, Россия) (184 км)
Погода в Майской (Чукотка, Россия) (196 км)
Погода в Билибино (Чукотка, Россия) (288 км)

Пояснения к столбцам:

Ветер - указаны скорость ветра в м/с - средняя за 10 мин, порывы в срок и между сроками (в фигурных скобках) и направление, откуда дует ветер: С - северный, СВ - северо-восточный, В - восточный, ЮВ - юго-восточный, Ю - южный, ЮЗ - юго-западный, З - западный, СЗ - северо-западный.
Видимость - горизонтальная дальность видимости в метрах или километрах. При видимости от 1 до 10 км при отсутствии осадков обычно наблюдается дымка, при ухудшении видимости до 1 км и менее - туман. В сухую погоду видимость может ухудшаться дымом, пылью или мглою.
Явления - указаны атмосферные явления, наблюдавшиеся в срок или в последний час перед сроком; фигурными скобками обозначены явления, наблюдавшиеся между сроками (за 1-3 часа до срока); квадратными скобками обозначены град или гололедные отложения с указанием их диаметра в мм.
Облачность - указаны через наклонную черту общая и нижняя облачность в баллах и высота нижней границы облаков в метрах; квадратными скобками обозначены формы облаков: Ci - перистые, Cs - перисто-слоистые, Cc - перисто-кучевые, Ac - высококучевые, As - высокослоистые, Sc - слоисто-кучевые, Ns - слоисто-дождевые, Cu - кучевые, Cb - кучево-дождевые. Подробнее классификацию облаков см. в Атласе облаков (PDF).
T - Температура воздуха - температура, измеренная на высоте 2 м над землей.
Td - Температура точки росы - температура, при понижении до которой содержащийся в воздухе водяной пар достигнет насыщения.
f - Относительная влажность воздуха - влажноcть воздуха, измеренная на высоте 2 м над землей.
Te - Эффективная температура - температура, которую ощущает одетый по сезону человек в тени. Характеристика душности погоды. При расчете учитывается влияние влажности воздуха и скорости ветра на теплоощущения человека.
Tes - Эффективная температура на солнце - температура, которую ощущает человек, с поправкой на солнечный нагрев. Характеристика знойности погоды. Зависит от высоты солнца над горизонтом, облачности и скорости ветра. Ночью, в пасмурную погоду, а также при ветре 12 м/с и более поправка равна нулю.
P - Атмосферное давление - приведенное к уровню моря атмосферное давление.
Po - Атмосферное давление - измеренное на уровне метеостанции атмосферное давление.
Tmin - Минимальная температура - минимум температуры воздуха на высоте 2 м над землей.
Tmax - Максимальная температура - максимум температуры воздуха на высоте 2 м над землей.
R - Количество осадков - Количество выпавших осадков за период времени, мм. При наведении курсора мыши на число - период времени, за который выпало указанное количество осадков.
R24 - Количество осадков - Количество выпавших осадков за 24 часа, мм.
S - Снежный покров - Высота снежного покрова, см. При наведении курсора мыши на число - состояние снежного покрова и степень покрытия местности в баллах.